Showing default

AMC-9 (GE-12), 27820

Orbit data source: Space-Track

AMC-9 (GE-12), 27820 is a payload satellite owned by SES Americom (LU) in GEO that was launched on Fri, 06 Jun 2003 UTC via a PROTON-K/BRIZ-M launch vehicle from the Tyuratam Missile And Space Complex (TTMTR). Payload-class satellites include a variety of spacecraft equipped with specific instruments for various scientific and technological missions. These include communications satellites like Starlink; space stations such as the ISS; scientific satellites like the Hubble; Earth observation satellites from companies like Planet Labs, Umbra, and HawkEye 360; GPS; miniature CubeSats for education and research; and military/defense satellites.

Not visible in the next 10 days
Identifier
27820, 2003-024A
Orbit
GEO
Country
Flag of LULU / SES
Related business
Manufacturer
Alcatel/Cannes
Mission
Non-operational Commercial Communications
Bus & Motor
SPACEBUS 3000B3, S400
Mass
~4,000 kg wet, ~1,500 kg dry
Launch date (UTC)
2003-06-06 (23 years ago)
Launch vehicle
PROTON-K/BRIZ-M
Launch site
Tyuratam Missile And Space Complex (TTMTR)
Object type
Payload
Rocket body
Debris
Shape & HBR
Box + 2 Pan, 19.0 m
Radar Cross Section
40.673 m², Large (>1 m²)

Expand to show TLE details & history
Last TLE update: 1 day ago

TLE from 1 day ago
0 AMC-9 (GE-12)
1 27820U 03024A   26194.07825079  .00000017  00000-0  00000-0 0  9996
2 27820   7.9814  65.4466 0017366 357.4613 338.3547  0.99028229 84245
Epoch: 2026-07-13T01:52Z
TLE epoch observation values (Epoch: 2026-07-13T01:52:40.868Z)
Latitude
-3.27694°
Longitude
82.27013°
Altitude
36,070.39 km
Speed
3.067 km/s
True Right ascension
02h 45m 38s
True Declination
-3° 16' 25"
Sunlit
Object was in daylight at epoch
Visualization orbit readout
Latitude
Unknown
Longitude
Unknown
Altitude
Unknown
Speed
Unknown
Apparent Right ascension
Unknown
Apparent Declination
Unknown
Sunlit
N/A
Visualization observer readout
Local Sidereal Time
14:04:04
Azimuth
Unknown
Elevation
Unknown
Doppler factor
Unknown
Orbital elements
Apogee altitude
36,213.721 km
Perigee altitude
36,066.047 km
Semi-major axis
42,518.021 km
Eccentricity
0.00174
Inclination
7.9814°
RAAN
65.4466°
Arg. of periapsis
357.4613°
True anomaly
338.28115°
Mean anomaly
338.3547°
Eccentric anomaly
338.31794°
Mean motion
0.24756 °/min
Orbital period
1,454.18 mins
BSTAR
0
Loading maneuver chart data...
Computing Atmospheric mass density...
Loading historical data...
Loading historical data...
Loading historical data...
Loading historical data...
Loading historical data...
Loading historical data...
Loading historical data...
Other satellites on launch #24 in the year 2003 (2003-06-06 UTC)

Documentation

Showing up to 5 results
|